Location: Étouvelles
(49.5207°N, 3.5808°E)
Time: 23:16:40
(UTC+00:00)

Cosmos 2278 - Pass Details

Date: 03 February 2023
Orbit: 838 x 853 km, 71.1° (Epoch: 21 March)

Event Time Altitude Azimuth Distance (km) Brightness Sun altitude
Rises 18:00:40 0° 220° (SW) 3,391 7.7 -12.6°
Reaches altitude 10° 18:03:09 10° 224° (SW) 2,462 7.0 -13.0°
Maximum altitude 18:08:43 58° 303° (WNW) 988 4.3 -13.9°
Drops below altitude 10° 18:14:21 10° 23° (NNE) 2,487 5.8 -14.8°
Enters shadow 18:16:03 - 26° (NNE) 3,121 6.3 -15.1°
